[[{"header":{"parameterUnit":"m.s-1","parameterCategory":1,"la1":30.2991,"la2":30.254,"lo1":-89.0895,"lo2":-89.0444,"dy":0.0017,"dx":0.0017,"nx":28,"ny":28,"refTime":"2024-08-14T09:00:00:Z","depth":0,"parameterNumber":2,"parameterNumberName":"U-component_of_WINDS"},"data":[0,0,0,0,0,0,0,0,0,0,0,0,0,0,0,0,0,0,0,0,0,0,0,0,0,0,0,0,0,0,0,0,0,0,0,0,0,0,0,0,0,0,0,0,0,0,0,0,0,0,0,0,0,0,0,0,0,0,0.776,0.7759,0,0.7726,0.7726,0.7726,0.7608,0.7605,0.7602,0.76,0.7574,0.7576,0.7578,0,0,0,0,0,0,0,0,0,0,0,0,0,0.7726,0.7727,0.776,0.7759,0.7759,0.7727,0.7726,0.7726,0.7608,0.7605,0.7602,0.7599,0.7574,0.7576,0.7578,0,0,0,0,0,0,0,0,0,0,0,0,0,0.7722,0.7728,0.776,0.7696,0.769,0.7727,0.7726,0.7726,0.7609,0.7605,0.7601,0.7597,0.7573,0.7576,0.7578,0.7676,0,0,0.7587,0.7588,0,0,0,0,0,0,0,0,0.7722,0.7723,0.7706,0.7701,0.7694,0.7667,0.7705,0.7709,0.761,0.764,0.76,0.7595,0.7609,0.7608,0.7611,0.7675,0.7674,0.7587,0.7589,0.759,0.759,0,0,0,0,0,0,0,0.7723,0.7724,0.7747,0.7706,0.7698,0.7671,0.7666,0.7705,0.7648,0.7637,0.7628,0.7626,0.7605,0.7609,0.761,0.7673,0.7587,0.7589,0.7591,0.7592,0.7813,0.7817,0,0,0,0,0,0,0.7731,0.7725,0.7748,0.7746,0.7698,0.7675,0.7669,0.768,0.7647,0.7638,0.7629,0.762,0.7606,0.7607,0.7609,0.7719,0.759,0.7592,0.7594,0.7809,0.7814,0.7818,0,0,0,0,0,0,0.7731,0.7734,0.7749,0.7733,0.7733,0.768,0.7693,0.7681,0.7685,0.7641,0.7631,0.7644,0.7603,0.7605,0.7659,0.7717,0.7593,0.7596,0.7804,0.781,0.7816,0.7943,0,0,0,0,0,0,0.7731,0.7735,0.7771,0.7735,0.7734,0.7799,0.7696,0.7684,0.7689,0.7677,0.7652,0.7644,0.76,0.7655,0.7662,0.7718,0.7598,0.7798,0.7807,0.7814,0.7934,0.7953,0.797,0,0,0,0,0,0.773,0.781,0.7773,0.7777,0.7777,0.7803,0.7803,0.7748,0.7694,0.773,0.7701,0.7644,0.7709,0.7662,0.7668,0.7727,0.7795,0.7804,0.7814,0.7926,0.7949,0.7969,0,0,0,0,0,0,0.7859,0.7805,0.7763,0.7834,0.7823,0.7783,0.7827,0.7776,0.7783,0.7772,0.7706,0.7702,0.7765,0.7751,0.77,0.7818,0.7742,0.7753,0.7825,0.7847,0.7865,0.7868,0.76,0,0,0,0,0,0.7895,0.7918,0.787,0.7937,0.7933,0.7881,0.789,0.7849,0.7837,0.7833,0.7808,0.78,0.7818,0.7832,0.7846,0.793,0.7923,0.7973,0.7991,0.8006,0.8017,0.8059,0.8081,0.785,0.785,0.7849,0,0,0.7971,0.7944,0.7963,0.7962,0.7949,0.7976,0.7879,0.7912,0.7931,0.7838,0.7887,0.7868,0.7855,0.7924,0.7954,0.7915,0.8079,0.8018,0.8031,0.8033,0.8071,0.8093,0.8113,0.7856,0.7855,0.7854,0,0,0.8123,0.8105,0.8157,0.8145,0.8125,0.8089,0.8102,0.8068,0.8051,0.8098,0.8028,0.8051,0.8084,0.8077,0.8078,0.8222,0.817,0.8229,0.8324,0.8366,0.8384,0.84,0.8451,0.847,0.824,0.824,0.824,0,0.8221,0.8256,0.8192,0.8228,0.823,0.8142,0.8196,0.8188,0.8175,0.8179,0.8134,0.8171,0.8157,0.8222,0.8257,0.8261,0.8273,0.8233,0.8386,0.8401,0.8415,0.8463,0.8483,0.8247,0.8246,0.8246,0.8245,0,0.8377,0.8402,0.8448,0.8433,0.8439,0.8485,0.8428,0.8443,0.84,0.8369,0.8417,0.8395,0.8403,0.8415,0.8375,0.8474,0.845,0.8397,0.832,0.8445,0.849,0.8508,0.8258,0.8255,0.8253,0.8251,0,0,0.8613,0.8559,0.8577,0.8568,0.8537,0.8557,0.8597,0.8601,0.8614,0.8608,0.864,0.8668,0.8617,0.8618,0.8576,0.8613,0.8727,0.8554,0.8553,0.8587,0.8835,0.8876,0.8898,0.8692,0.8695,0.8697,0.8836,0,0.8757,0.8821,0.8763,0.8839,0.8861,0.8776,0.8811,0.8797,0.8769,0.8785,0.8753,0.8774,0.8705,0.8705,0.8737,0.8707,0.8777,0.8696,0.8723,0.8725,0.873,0.8921,0.8965,0.9097,0.8852,0.8855,0.8857,0,0.8935,0.8932,0.9009,0.897,0.8977,0.901,0.9007,0.9023,0.9005,0.8981,0.898,0.8927,0.8965,0.8887,0.8939,0.8885,0.8893,0.8879,0.8883,0.8885,0.88,0.8929,0.9138,0.9158,0.8884,0.8882,0.888,0,0.9099,0.9114,0.9161,0.9156,0.9113,0.9137,0.9121,0.9098,0.9103,0.9101,0.9104,0.9108,0.9111,0.9116,0.9065,0.9014,0.9124,0.9042,0.9106,0.9108,0.9135,0.9134,0.9349,0.9139,0.9138,0.9138,0.9137,0,0.9266,0.9317,0.9234,0.9263,0.9317,0.9249,0.9305,0.928,0.926,0.9284,0.9212,0.9236,0.9168,0.9185,0.9146,0.9195,0.9197,0.918,0.9169,0.9187,0.9189,0.9192,0.9182,0.9143,0.9142,0.9141,0.914,0,0.946,0.9406,0.9452,0.9405,0.9394,0.9436,0.9396,0.9422,0.9387,0.9418,0.9421,0.9367,0.9384,0.9333,0.9343,0.9316,0.9386,0.9361,0.9392,0.9384,0.9451,0.9446,0.9676,0.9703,0.9475,0.9477,0.9479,0,0.9571,0.9607,0.9562,0.9571,0.9557,0.9574,0.9577,0.9511,0.9518,0.9498,0.9527,0.9536,0.954,0.9571,0.9534,0.954,0.9514,0.9594,0.9515,0.9531,0.9516,0.9514,0.9518,0.9612,0.9614,0.9617,0.9618,0,0.9774,0.9744,0.975,0.9747,0.9751,0.9746,0.9736,0.9749,0.9678,0.9689,0.9703,0.9706,0.9713,0.9724,0.9721,0.9706,0.9652,0.9643,0.9658,0.9677,0.9694,0.9686,0.9437,0.9639,0.9637,0.9635,0.9634,0.9633,0.993,0.9957,0.9928,0.9937,0.9921,0.9913,0.9934,0.9899,0.9908,0.9907,0.9868,0.9889,0.9868,0.9858,0.9848,0.9865,0.9828,0.9851,0.9856,0.9863,0.9874,0.969,0.9865,0.9864,0.9863,0.9863,0.9862,0,1.0129,1.0105,1.0113,1.0099,1.0106,1.0049,1.0034,1.0044,1.0063,1.0046,1.005,1.0066,1.0075,1.0036,1.004,1.0061,1.0036,1.0065,1.0063,1.006,0.9907,0.9893,1.0085,1.0085,1.0085,1.0085,1.0085,1.0084,1.0233,1.0275,1.0242,1.0276,1.0252,1.027,1.0266,1.0258,1.0244,1.0263,1.0269,1.0242,1.0217,1.0217,1.0223,1.0212,1.0217,1.0255,1.0235,1.0093,1.0072,1.0051,1.0038,1.0256,1.0256,1.0387,1.0388,1.0389]},{"header":{"parameterUnit":"m.s-1","parameterCategory":1,"la1":30.2991,"la2":30.254,"lo1":-89.0895,"lo2":-89.0444,"dy":0.0017,"dx":0.0017,"nx":28,"ny":28,"refTime":"2024-08-14T09:00:00:Z","depth":0,"parameterNumber":3,"parameterNumberName":"V-component_of_WINDS"},"data":[0,0,0,0,0,0,0,0,0,0,0,0,0,0,0,0,0,0,0,0,0,0,0,0,0,0,0,0,0,0,0,0,0,0,0,0,0,0,0,0,0,0,0,0,0,0,0,0,0,0,0,0,0,0,0,0,0,0,1.685,1.6849,0,1.677,1.6769,1.6768,1.6654,1.6652,1.665,1.6648,1.6568,1.6567,1.6567,0,0,0,0,0,0,0,0,0,0,0,0,0,1.6904,1.6903,1.685,1.6849,1.6848,1.677,1.6769,1.6768,1.6654,1.6652,1.6649,1.6647,1.6568,1.6567,1.6567,0,0,0,0,0,0,0,0,0,0,0,0,0,1.6858,1.6903,1.685,1.6782,1.6775,1.677,1.6769,1.6767,1.6654,1.6651,1.6648,1.6646,1.6568,1.6567,1.6567,1.6624,0,0,1.6566,1.6565,0,0,0,0,0,0,0,0,1.6861,1.6856,1.6793,1.6786,1.6778,1.6719,1.6758,1.6719,1.6655,1.67,1.6648,1.6644,1.662,1.6615,1.6607,1.662,1.6616,1.6566,1.6565,1.6565,1.6565,0,0,0,0,0,0,0,1.6864,1.6859,1.6818,1.6792,1.6783,1.6755,1.6745,1.675,1.6678,1.6696,1.6687,1.668,1.6616,1.6608,1.6604,1.6615,1.6566,1.6565,1.6565,1.6565,1.6668,1.6671,0,0,0,0,0,0,1.6877,1.6862,1.6821,1.6816,1.6813,1.6756,1.6745,1.6741,1.6678,1.6665,1.6682,1.6674,1.661,1.6605,1.6601,1.6661,1.6565,1.6565,1.6565,1.6665,1.6668,1.6672,0,0,0,0,0,0,1.6879,1.6875,1.6824,1.6837,1.6828,1.6758,1.6754,1.6741,1.6732,1.6667,1.6654,1.6687,1.6607,1.6602,1.6618,1.6657,1.6565,1.6564,1.6661,1.6666,1.667,1.6784,0,0,0,0,0,0,1.6881,1.6876,1.6897,1.6838,1.6828,1.6843,1.6757,1.6741,1.6732,1.6721,1.6668,1.6656,1.6605,1.6619,1.6618,1.6655,1.6564,1.6657,1.6663,1.6669,1.6777,1.6792,1.6805,0,0,0,0,0,1.6883,1.6933,1.6899,1.6894,1.6852,1.6845,1.684,1.6778,1.6735,1.6756,1.6713,1.6658,1.6653,1.6622,1.6619,1.6657,1.6655,1.6662,1.6668,1.677,1.6789,1.6805,0,0,0,0,0,0,1.7,1.6924,1.6885,1.6917,1.6889,1.6826,1.685,1.6801,1.6784,1.6775,1.67,1.6689,1.6714,1.6687,1.6654,1.6707,1.6645,1.6652,1.6724,1.6741,1.6755,1.6762,1.6563,0,0,0,0,0,1.7029,1.7029,1.6963,1.6998,1.6985,1.6921,1.6915,1.687,1.6838,1.6825,1.6784,1.6755,1.6746,1.6742,1.6731,1.6772,1.6758,1.6796,1.6811,1.6823,1.6829,1.6847,1.6863,1.6694,1.6694,1.6694,0,0,1.709,1.7048,1.7053,1.702,1.6993,1.6994,1.6911,1.6917,1.6917,1.6826,1.6839,1.6807,1.6769,1.6798,1.6809,1.6776,1.6873,1.6831,1.6841,1.6841,1.6856,1.6872,1.6886,1.6698,1.6698,1.6697,0,0,1.7201,1.717,1.7195,1.7169,1.7127,1.7083,1.7089,1.7034,1.7009,1.7021,1.6951,1.6951,1.6938,1.6913,1.6899,1.6999,1.6947,1.6997,1.7072,1.7091,1.7104,1.7115,1.715,1.7163,1.7004,1.7004,1.7005,0,1.7282,1.7281,1.7214,1.7224,1.7211,1.7127,1.7151,1.7129,1.7087,1.7079,1.7043,1.7024,1.6993,1.7014,1.7038,1.7029,1.7033,1.7003,1.7107,1.7118,1.7128,1.716,1.7173,1.7011,1.701,1.7009,1.7009,0,1.7382,1.7383,1.7408,1.7368,1.7358,1.7375,1.731,1.7307,1.7263,1.7223,1.7234,1.7193,1.7172,1.7173,1.7131,1.7187,1.7168,1.7121,1.7058,1.7151,1.718,1.7192,1.702,1.7018,1.7016,1.7014,0,0,1.7566,1.7487,1.7497,1.7477,1.7425,1.7424,1.7436,1.7414,1.7413,1.7386,1.7394,1.7384,1.7339,1.7324,1.7277,1.7293,1.7373,1.7243,1.7241,1.7268,1.7432,1.7467,1.7483,1.7338,1.734,1.7342,1.7434,0,1.7667,1.7683,1.7622,1.7655,1.7654,1.7573,1.7584,1.7553,1.7515,1.7509,1.7467,1.7461,1.7403,1.7392,1.7404,1.7361,1.7405,1.7353,1.7345,1.7345,1.7356,1.7498,1.7536,1.7626,1.7445,1.7447,1.7449,0,1.7787,1.7765,1.7797,1.7741,1.7738,1.7749,1.7723,1.7718,1.768,1.7651,1.7633,1.7578,1.7586,1.7525,1.7534,1.75,1.7492,1.747,1.7472,1.7469,1.7403,1.7498,1.7653,1.7666,1.7466,1.7465,1.7463,0,1.7916,1.7895,1.7911,1.7896,1.7832,1.7841,1.7815,1.7774,1.7764,1.774,1.7733,1.7712,1.77,1.7684,1.7625,1.7586,1.764,1.7575,1.7616,1.7617,1.7631,1.7631,1.7787,1.7627,1.7627,1.7627,1.7627,0,1.8035,1.8057,1.7968,1.7978,1.8001,1.793,1.7954,1.7919,1.7884,1.7885,1.7814,1.7817,1.7738,1.7732,1.7686,1.7699,1.7695,1.7671,1.7659,1.7677,1.768,1.7672,1.7664,1.763,1.7629,1.7629,1.7628,0,1.8183,1.8124,1.8136,1.8074,1.8058,1.8078,1.8024,1.803,1.7987,1.7989,1.7986,1.7919,1.7908,1.7847,1.7822,1.779,1.782,1.7795,1.7833,1.7824,1.7869,1.7865,1.8024,1.804,1.7872,1.7873,1.7875,0,1.8263,1.8278,1.8217,1.8212,1.8189,1.8183,1.8171,1.8102,1.8093,1.805,1.8061,1.8044,1.8027,1.8012,1.7961,1.7941,1.7915,1.7972,1.7911,1.7929,1.7915,1.7914,1.7915,1.7985,1.7987,1.7989,1.799,0,1.841,1.8379,1.8366,1.8342,1.8331,1.8309,1.8282,1.8283,1.8205,1.8199,1.8186,1.8173,1.8146,1.813,1.81,1.8072,1.8019,1.8009,1.8018,1.8037,1.8058,1.8046,1.7867,1.8006,1.8005,1.8003,1.8003,1.8002,1.8525,1.8535,1.8492,1.8479,1.8452,1.8429,1.8431,1.8388,1.8376,1.8349,1.8308,1.8301,1.826,1.8216,1.8192,1.8184,1.8153,1.8166,1.8169,1.8173,1.8182,1.8059,1.8179,1.8178,1.8178,1.8177,1.8177,0,1.8668,1.8636,1.8625,1.859,1.8579,1.8529,1.8497,1.8491,1.8485,1.8453,1.8436,1.8421,1.8404,1.8351,1.8328,1.8332,1.8307,1.8329,1.8328,1.8322,1.8211,1.8206,1.835,1.835,1.835,1.835,1.835,1.835,1.8741,1.8753,1.8718,1.8716,1.8684,1.8676,1.8661,1.8639,1.8612,1.8598,1.8584,1.8549,1.8507,1.8481,1.8462,1.8447,1.8442,1.8472,1.8449,1.8346,1.833,1.8314,1.8309,1.8471,1.8472,1.8559,1.856,1.8561]}]]